#timestamp,LO_Frequency,Hit,StdDev 
1704927615.1,286047001.6,N
1704927616.0,286047001.6,N
1704927635.8,286047004.3,Y
1704927655.7,286047001.6,P
1704927675.5,286047002.4,P
1704927695.3,286046998.1,N
1704927715.2,286047000.1,N
1704927735.0,286047002.4,N
1704927735.9,286047002.4,N
1704927755.8,286047001.2,N
1704927775.6,286046998.6,N
1704927795.4,286047000.9,N
1704927815.3,286046998.9,N
1704927835.1,286047001.0,N
1704927855.8,286047000.4,N
1704927875.7,286046998.3,N
1704927895.5,286047000.6,N
1704927915.3,286046999.9,N
1704927935.2,286046998.6,N
1704927955.0,286046998.3,N
1704927955.9,286046998.3,N
1704927975.8,286047002.8,N
1704927995.6,286047002.3,N
1704928015.4,286047000.0,N
1704928035.3,286047002.3,N
1704928055.1,286047002.4,N
1704928075.8,286047002.5,N
1704928095.7,286047000.2,N
1704928115.5,286047000.6,N
1704928135.4,286047000.8,N
1704928155.2,286047000.6,N
1704928175.0,286047002.7,N
1704928175.9,286047002.7,N
1704928195.8,286047002.2,N
1704928215.6,286047002.4,N
1704928235.5,286047001.9,N
1704928255.3,286047001.6,N
1704928275.1,286047002.0,N
1704928295.9,286047000.3,N
1704928315.7,286047002.5,N
1704928335.5,286047000.2,N
1704928355.4,286047002.0,N
1704928375.2,286047001.5,N
1704928395.0,286047002.7,N
1704928396.0,286047002.7,N
1704928415.8,286047000.4,N
1704928435.6,286047001.9,N
1704928455.5,286047002.5,N
1704928475.3,286047000.5,N
1704928495.1,286046998.2,N
1704928515.9,286047002.6,N
1704928535.7,286047001.0,N
1704928555.6,286046998.7,N
1704928575.4,286047000.9,N
1704928595.2,286047000.0,N
1704928615.1,286047000.5,N
1704928616.0,286047000.5,N
1704928635.8,286046998.3,N
1704928655.6,286046998.3,N
1704928675.5,286046999.8,N
1704928695.3,286047000.4,N
1704928715.2,286047000.7,N
1704928735.9,286047001.2,N
1704928755.7,286047000.9,N
1704928775.6,286046999.1,N
1704928795.4,286047001.2,N
1704928815.2,286046998.5,N
1704928835.1,286046998.2,N
1704928836.0,286046998.2,N
1704928855.8,286046999.0,N
1704928875.7,286046999.3,N
1704928895.5,286046998.8,N
1704928915.3,286047000.0,N
1704928935.2,286046998.1,N
1704928955.0,286047001.2,N
1704928955.9,286047001.2,N
1704928975.7,286047000.4,N
1704928995.6,286047000.6,N
1704929015.4,286047000.0,N
1704929035.3,286047000.8,N
1704929055.1,286046999.9,N
1704929056.0,286046999.9,N
1704929075.8,286047002.6,N
1704929095.7,286047002.6,N
1704929115.5,286047002.8,N
1704929135.4,286047002.6,N
1704929155.2,286047001.6,N
1704929175.0,286047000.4,N
1704929175.9,286047000.4,N
1704929195.8,286047000.7,N
1704929215.6,286047000.3,N
1704929235.4,286047002.6,N
1704929255.3,286047000.4,N
1704929275.1,286047000.2,N
1704929325.9,286047005.9,E
1704929335.8,286047002.0,N
1704929355.6,286046998.0,P
1704929375.5,286046997.7,N
1704929395.3,286046999.1,N
1704929415.2,286046995.5,N
1704929435.9,286046996.0,N
1704929455.7,286046995.6,N
1704929475.6,286046997.8,N
1704929495.4,286046997.6,N
1704929515.2,286046997.8,N
1704929535.1,286046995.0,N
1704929536.0,286046995.0,N
1704929555.8,286046997.3,N
1704929575.7,286046997.4,N
1704929595.5,286046998.0,N
1704929615.3,286046995.1,N
1704929635.2,286046998.0,N
1704929655.0,286046995.9,N
1704929655.9,286046995.9,N
1704929675.8,286046995.5,N
1704929695.6,286046995.8,N
1704929715.4,286046995.2,N
1704929735.3,286046995.8,N
1704929755.1,286046996.4,N
1704929775.9,286046994.8,Y
1704929795.7,286047001.2,P
1704929815.5,286047000.8,N
1704929835.4,286046998.3,N
1704929855.2,286046998.7,N
1704929875.0,286046998.4,N
1704929875.9,286046998.4,N
1704929895.8,286047001.1,N
1704929915.6,286047001.2,N
1704929935.4,286047001.2,N
1704929955.3,286047000.3,N
1704929975.1,286047000.4,N
1704929995.9,286047000.3,N
1704930015.7,286047002.6,N
1704930035.5,286046999.7,N
1704930055.4,286047000.6,N
1704930075.2,286046998.4,N
1704930095.0,286046996.6,N
1704930095.9,286046996.6,N
1704930115.8,286047001.1,N
1704930135.6,286046999.9,N
1704930155.5,286046998.2,N
1704930175.3,286046999.6,N
1704930195.1,286046999.3,N
1704930215.9,286046996.5,N
1704930235.7,286046999.4,N
1704930255.5,286046996.9,N
1704930275.4,286046996.8,N
1704930295.2,286046997.2,N
1704930315.1,286046997.6,N
1704930316.0,286046997.6,N
1704930335.8,286046999.5,N
1704930355.6,286046999.1,N
1704930375.5,286046999.2,N
1704930395.3,286046999.0,N
1704930415.1,286046998.3,N
1704930435.9,286046998.7,N
1704930455.7,286046999.5,N
1704930475.6,286046998.8,N
1704930495.4,286046999.4,N
1704930515.2,286046999.3,N
1704930535.1,286046998.3,N
1704930536.0,286046998.3,N
1704930555.8,286046998.2,N
1704930575.6,286046998.1,N
1704930595.5,286047000.4,N
1704930615.3,286047000.7,N
1704930635.2,286047002.7,N
1704930655.9,286046998.5,N
1704930675.7,286047000.1,N
1704930695.6,286046999.0,N
1704930715.4,286046998.3,N
1704930735.2,286046998.5,N
1704930755.1,286047000.5,N
1704930756.0,286047000.5,N
1704930775.8,286046996.5,N
1704930795.7,286046998.9,N
1704930815.5,286046998.9,N
1704930835.3,286047000.8,N
1704930855.2,286046999.0,N
1704930875.0,286046999.2,N
1704930875.9,286046999.2,N
1704930895.8,286046996.6,Y
1704930915.6,286046998.1,P
1704930935.4,286046999.0,N
1704930955.3,286046999.1,N
1704930975.1,286046998.1,Y
1704930995.8,286047002.1,P
1704931015.7,286047000.5,N
1704931035.5,286047000.4,N
1704931055.4,286047000.3,N
1704931075.2,286047002.4,N
1704931095.0,286047000.8,N
1704931095.9,286047000.8,N
1704931115.8,286047001.1,N
1704931135.6,286047001.2,N
1704931155.4,286047002.5,N
1704931175.3,286046999.7,N
1704931195.1,286047002.0,N
